SCP
0 0 0 0 0 0 0 0 0 0 0 0 0 0 0 0 0 0 0 0 0 0 0 0 0 0 0 0 0 0 0 0 0 0 0 0 0 0 0 0 0 0 0
0 0 0 0 0 0 0 0 0 0 0 0 0 0 0 0 0 0 0 0 0 0 0 0 0 0 0 0 0 0 0 0 0 0 0 0 0 0 0 0 0 0 0
0 0 0 0 0 0 0 0 0 0 0 0 0 0 0 0 0 0 0 0 0 0 0 0 0 0 0 0 0 0 0 0 0 0 0 0 0 0 0 0 0 0 0
0 0 0 0 0 0 0 0 0 0 0 0 0 0 0 0 0 0 0 0 0 0 0 0 0 0 0 0 0 0 0 0 0 0 0 0 0 0 0 0 0 0 0
0 0 0 0 0 0 0 0 0 0 0 0 0 0 0 0 0 0 0 0 0 0 0 0 0 0 0 0 0 0 0 0 0 0 0 0 0 0 0 0 0 0 0
0 0 0 0 0 0 0 0 0 0 0 0 0 0 0 0 0 0 0 0 0 0 0 0 0 0 0 0 0 0 0 0 0 0 0 0 0 0 0 0 0 0 0
0 0 0 0 -0 0 0 -0 -0 -0 -0 0 0 0 0 0 0 0 0 0 0 0 0 0 0 0 0 0 0 0 0 0 0 0 0 0 0 0 0 0 0 0 0
0 -0 -0 -0 0 0 0 0 -0 -0 -0 0 0 0 0 0 0 0 0 0 0 0 0 0 0 0 0 0 0 0 0 0 0 0 0 0 0 0 0 0 0 0 0
-0 -0 -0 -0 -0 0 0 0 0 0 0 0 0 0 0 0 0 0 0 0 0 0 0 0 0 0 0 0 0 0 0 0 0 0 0 0 0 0 0 0 0 0 0
-0 -0 -0 -0 -0 -0 -0 0 0 0 0 0 0 0 0 0 0 0 0 0 0 0 0 0 0 0 0 0 0 0 0 0 0 0 0 0 0 0 0 0 0 0 0
-0 -0 -0 -0 0 0 0 0 0 0 0 0 0 0 0 0 0 0 0 0 0 0 0 0 0 0 0 0 0 0 0 0 0 0 0 0 0 0 0 0 0 0 0
-0 -0 -0 0 0 0 0 0 0 0 0 0 0 0 0 0 0 0 0 0 0 0 0 0 0 0 0 0 0 0 0 0 0 0 0 0 0 0 0 0 0 0 0
-0 0 0 0 0 0 0 0 0 0 0 0 0 0 0 0 0 0 0 0 0 0 0 0 0 0 0 0 0 0 0 0 0 0 0 0 0 0 0 0 0 0 0
0 0 0 0 0 0 0 0 0 0 0 0 0 0 0 0 0 0 0 0 0 0 0 0 0 0 0 0 0 0 0 0 0 0 0 0 0 0 0 0 0 0 0
0 0 0 0 0 0 0 0 0 0 0 0 0 0 0 0 0 0 0 0 0 0 0 0 0 0 0 0 0 0 0 0 0 0 0 0 0 0 0 0 0 0 0
0 0 0 0 0 0 0 0 0 0 0 0 0 0 0 0 0 0 0 0 0 0 0 0 0 0 0 0 0 0 0 0 0 0 0 0 0 0 0 0 0 0 0
0 0 0 0 0 0 0 0 0 0 0 0 0 0 0 0 0 0 0 0 0 0 0 0 0 0 0 0 0 0 0 0 0 0 0 0 0 0 0 0 0 0 0
0 0 0 0 0 0 0 0 0 0 0 0 0 0 0 0 0 0 0 0 0 0 0 0 0 0 0 0 0 0 0 0 0 0 0 0 0 0 0 0 0 0 0
0 0 0 0 0 0 0 0 0 0 0 0 0 0 0 0 0 0 0 0 0 0 0 0 0 0 0 0 0 0 0 0 0 0 0 0 0 0 0 0 0 0 0
0 0 0 0 0 0 0 0 0 0 0 0 0 0 0 0 0 0 0 0 0 0 0 0 0 0 0 0 0 0 0 0 0 0 0 0 0 0 0 0 0 0 0
0 0 0 0 0 0 0 0 0 0 0 0 0 0 0 0 0 0 0 0 0 0 0 0 0 0 0 0 0 0 0 0 0 0 0 0 0 0 0 0 0 0 0
0 0 0 0 0 0 0 0 0 0 0 0 0 0 0 0 0 0 0 0 0 0 0 0 0 0 0 0 0 0 0 0 0 0 0 0 0 0 0 0 0 0 0
0 0 0 0 0 0 0 0 0 0 0 0 0 0 0 0 0 0 0 0 0 0 0 0 0 0 0 0 0 0 0 0 0 0 0 0 0 0 0 0 0 0 0
0 0 0 0 0 0 0 0 0 0 0 0 0 0 0 0 0 0 0 0 0 0 0 0 0 0 0 0 0 0 0 0 0 0 0 0 0 0 0 0 0 0 0
0 0 0 0 0 0 0 0 0 0 0 0 0 0 0 0 0 0 0 0 0 0 0 0 0 0 0 0 0 0 0 0 0 0 0 0 0 0 0 0 0 0 0
0 0 0 0 0 0 0 0 0 0 0 0 0 0 0 0 0 0 0 0 0 0 0 0 0 0 0 0 0 0 0 0 0 0 0 0 0 0 0 0 0 0 0
Wind_Speed_500mb
23 27 29 31 31 34 40 46 52 57 62 71 75 82 91 98 104 107 111 111 113 117 118 118 118 114 114 111 111 110 112 113 109 93 90 84 68 64 67 64 67 69 66
22 27 30 33 35 38 41 45 49 57 59 61 66 74 80 88 95 104 111 114 115 117 116 119 120 112 120 119 119 113 112 109 106 93 83 89 85 77 72 69 68 69 67
22 27 31 34 37 40 45 49 51 54 58 63 67 73 77 82 86 95 103 108 111 117 116 113 118 117 115 113 118 113 112 113 111 102 92 94 89 82 77 76 78 73 66
23 30 36 40 43 46 50 53 55 55 57 60 63 68 75 77 82 85 94 104 108 112 119 118 117 114 128 121 123 121 115 104 103 106 105 98 93 87 84 80 75 76 67
32 37 44 49 50 52 55 57 56 57 59 62 65 67 67 73 78 81 85 92 100 106 110 120 116 120 130 135 121 123 119 110 109 108 109 113 102 93 93 81 79 77 71
36 46 56 61 62 61 62 65 67 66 64 64 65 66 70 72 73 76 77 86 94 98 102 111 120 115 113 128 127 115 116 111 115 117 111 115 108 99 95 89 88 79 67
42 53 62 68 70 70 70 70 72 75 76 75 74 73 74 75 75 75 75 79 88 98 105 105 111 113 115 120 112 116 108 131 127 126 122 121 115 100 91 95 92 66 72
47 58 66 73 77 77 79 81 81 79 79 79 81 81 83 83 81 79 77 78 85 94 102 107 109 111 114 112 112 121 116 129 131 133 115 109 94 84 91 92 83 63 54
56 67 74 80 84 82 84 90 95 100 101 99 90 85 84 86 86 85 79 78 82 91 95 100 102 106 110 101 109 114 113 123 128 126 110 114 83 70 76 68 54 52 61
69 78 83 87 88 86 87 89 96 103 107 109 112 108 99 93 83 86 86 80 83 89 95 99 96 97 99 98 108 114 119 117 125 118 107 78 68 67 64 53 54 63 67
81 89 96 95 93 89 91 94 99 105 111 115 118 117 111 105 101 86 85 81 84 87 97 101 100 93 88 92 103 103 119 123 117 100 101 68 74 59 50 54 55 54 69
94 102 103 97 96 95 97 102 104 108 112 115 116 120 118 111 103 99 88 86 77 83 98 103 102 92 87 85 89 103 112 114 106 92 77 79 63 49 60 58 62 54 50
101 103 103 105 105 103 102 103 106 105 106 111 111 116 119 118 110 103 93 88 81 77 92 96 96 88 84 80 86 95 103 98 104 87 79 65 47 69 65 62 56 54 47
104 107 107 107 108 106 105 103 101 105 103 104 107 112 115 120 118 109 96 89 78 69 75 87 90 84 79 78 70 79 89 96 97 83 75 57 70 71 62 55 54 53 46
100 105 108 109 110 113 113 110 108 108 100 103 108 105 104 113 111 104 97 90 76 69 66 80 81 82 78 74 73 76 76 85 84 76 63 78 76 71 66 59 52 52 45
102 105 106 103 103 104 107 119 117 114 106 104 107 100 103 102 106 98 94 82 73 73 75 82 83 80 78 79 80 81 76 79 74 75 83 82 77 72 66 60 53 44 41
100 104 104 103 100 95 92 88 99 116 102 105 104 95 94 101 100 94 89 83 76 74 74 80 88 83 82 81 93 100 103 91 79 90 89 82 75 69 64 58 51 48 45
100 101 98 99 92 87 83 86 86 89 100 110 106 95 102 95 94 92 82 73 86 77 74 85 90 89 89 93 104 106 97 89 91 88 84 78 76 68 58 55 53 47 38
95 98 93 90 87 88 90 92 95 96 98 103 111 111 100 87 89 85 67 79 87 93 81 89 92 93 97 106 105 95 90 95 90 83 76 75 66 59 61 55 47 38 32
90 86 75 85 92 92 92 92 94 92 94 94 93 98 94 80 86 78 75 80 88 91 88 93 97 99 101 106 100 93 92 88 80 75 76 68 64 60 57 47 41 39 35
87 99 95 94 96 97 98 95 94 93 95 98 97 90 85 84 87 82 79 83 88 93 95 98 101 103 104 105 100 95 92 87 83 82 74 70 67 59 48 43 44 38 32
92 95 94 95 94 95 97 95 92 89 91 91 99 90 82 85 85 83 81 82 90 94 95 98 96 95 99 96 97 97 92 88 82 76 74 68 56 50 48 47 40 34 31
81 82 84 86 86 87 88 87 86 86 90 90 87 82 78 79 76 74 79 83 83 82 87 94 95 91 89 93 92 87 83 80 75 71 63 57 53 49 46 42 36 34 30
76 75 74 74 76 79 83 83 80 80 81 83 79 74 71 73 74 77 81 83 81 81 82 82 84 91 91 84 75 73 73 70 62 55 50 48 50 48 44 39 35 33 31
67 68 66 68 72 80 81 81 78 78 76 74 67 64 68 70 73 74 74 72 69 70 70 73 79 77 76 80 79 72 65 61 57 51 49 46 44 43 39 36 35 35 31
56 59 55 55 60 63 62 58 56 54 52 51 53 55 59 64 64 62 64 68 73 78 84 85 86 86 84 78 71 66 63 57 51 49 47 45 42 41 39 37 36 34 32
Wind_Direction_500mb
295 301 308 313 307 299 297 291 286 284 281 277 274 276 274 271 269 270 269 269 268 266 265 262 261 257 248 243 246 251 251 245 240 245 247 251 248 242 240 243 244 241 241
305 309 313 314 310 311 315 313 300 287 283 281 277 275 274 272 271 269 269 268 268 266 263 256 259 256 251 244 242 244 246 246 242 242 241 246 246 245 245 248 244 239 237
311 320 325 328 325 318 315 318 320 314 297 288 286 281 278 276 274 270 269 267 261 264 266 262 258 254 250 247 239 239 248 246 245 243 239 242 242 242 240 245 239 232 230
320 330 332 329 326 326 324 321 319 320 318 305 295 292 285 281 276 272 270 270 268 265 263 263 264 260 249 253 247 238 240 240 240 238 239 237 237 239 240 245 236 226 231
312 322 328 328 325 322 320 321 322 322 318 317 311 298 292 287 283 278 272 271 271 269 267 267 266 266 253 258 252 241 236 241 244 235 243 241 237 234 231 240 249 230 230
318 325 327 326 324 321 318 317 318 319 320 318 313 313 302 293 290 287 279 273 273 273 272 268 270 266 268 259 258 251 246 248 237 234 240 241 241 237 234 240 239 215 218
321 330 331 328 324 324 322 320 318 317 316 316 317 316 309 305 297 290 283 275 270 268 270 270 269 269 271 268 271 256 256 248 244 248 243 240 237 241 237 235 222 226 221
324 326 328 327 323 320 317 318 317 316 315 314 311 312 312 308 309 302 291 277 270 267 266 270 272 270 270 271 272 265 253 246 247 243 250 249 245 248 246 233 221 209 220
317 319 322 323 320 315 311 311 313 314 315 315 313 312 307 303 307 308 302 286 273 268 265 266 269 271 271 271 270 261 261 251 240 239 244 243 246 243 238 206 215 209 208
310 312 315 317 314 310 306 304 304 305 306 308 307 309 309 306 303 305 307 294 280 270 269 264 265 269 272 273 265 263 259 257 250 233 232 229 234 209 198 220 221 213 216
305 308 310 310 309 306 303 302 303 304 304 304 303 304 304 306 308 305 304 298 282 273 269 266 268 268 272 274 270 266 266 259 242 227 231 231 200 201 203 205 205 214 214
304 304 305 306 305 303 301 300 300 301 302 302 304 302 302 304 304 306 305 303 286 271 267 268 268 269 266 273 273 264 258 249 237 217 209 197 186 196 195 200 197 188 197
300 300 301 301 300 299 298 297 297 296 296 297 299 300 299 302 302 301 304 302 293 273 269 270 272 270 269 270 269 265 258 246 222 204 189 185 198 193 190 185 181 186 193
298 298 298 298 298 297 296 295 293 291 292 291 293 295 298 298 298 300 303 301 294 269 272 271 270 267 264 264 256 246 241 237 211 188 185 189 192 181 178 184 185 188 192
297 297 296 296 296 296 294 294 292 291 288 288 289 291 292 292 295 298 299 297 292 285 278 274 263 255 249 240 230 227 218 199 191 186 189 183 176 176 176 179 187 190 196
294 293 292 291 288 287 288 290 289 289 289 287 288 285 289 291 294 295 293 287 282 279 278 265 254 246 239 230 220 204 194 191 194 193 186 180 178 178 179 182 190 192 194
292 291 291 289 286 283 280 279 283 290 287 285 283 279 277 289 291 292 288 278 272 274 258 251 247 238 229 221 208 195 184 191 198 189 179 178 177 179 183 183 187 189 189
294 292 289 286 281 278 277 278 277 277 283 285 283 278 283 283 285 285 285 274 271 257 246 245 239 229 221 210 197 189 186 189 184 180 178 175 176 176 176 185 184 185 185
295 292 288 284 276 275 276 276 274 273 272 274 282 282 282 282 282 282 276 261 254 251 243 235 231 225 213 202 192 185 187 183 178 176 172 173 170 176 177 178 177 185 190
296 297 288 281 279 278 277 276 275 273 272 270 271 274 281 282 278 274 275 256 245 241 231 225 221 216 209 196 190 190 183 177 171 171 173 172 172 171 172 175 184 187 186
292 291 291 287 281 281 279 274 274 273 271 271 270 272 271 272 273 272 267 254 242 230 224 218 211 207 199 193 190 182 176 171 171 172 171 168 165 164 177 179 181 181 182
297 295 294 293 291 287 282 280 276 271 270 270 272 270 268 268 266 263 259 241 229 223 217 211 206 201 195 189 181 175 171 169 169 168 165 162 167 173 172 178 177 175 177
298 297 298 296 295 294 290 285 279 276 275 275 273 268 268 264 256 241 232 221 217 209 203 202 198 189 183 177 176 173 170 167 164 163 166 169 164 166 174 175 172 172 173
303 303 303 302 301 299 295 292 290 287 282 277 273 266 253 249 236 228 218 214 207 200 197 198 193 180 172 166 165 164 159 155 160 166 166 156 163 169 170 168 166 168 171
307 305 304 305 304 297 290 287 284 282 282 278 264 245 237 224 214 208 198 194 191 188 182 174 164 161 158 153 150 152 157 161 162 155 159 164 165 164 162 163 167 168 169
309 305 308 304 299 298 296 292 283 274 264 249 231 218 209 201 194 185 180 178 173 164 159 155 151 150 150 151 154 155 153 147 150 160 161 161 161 160 161 165 165 163 161
Wind_Speed_850mb
23 27 29 31 31 34 40 46 52 57 62 71 75 82 91 98 104 107 111 111 113 117 118 118 118 114 114 111 111 110 112 113 109 93 90 84 68 64 67 64 67 69 66
22 27 30 33 35 38 41 45 49 57 59 61 66 74 80 88 95 104 111 114 115 117 116 119 120 112 120 119 119 113 112 109 106 93 83 89 85 77 72 69 68 69 67
22 27 31 34 37 40 45 49 51 54 58 63 67 73 77 82 86 95 103 108 111 117 116 113 118 117 115 113 118 113 112 113 111 102 92 94 89 82 77 76 78 73 66
23 30 36 40 43 46 50 53 55 55 57 60 63 68 75 77 82 85 94 104 108 112 119 118 117 114 128 121 123 121 115 104 103 106 105 98 93 87 84 80 75 76 67
32 37 44 49 50 52 55 57 56 57 59 62 65 67 67 73 78 81 85 92 100 106 110 120 116 120 130 135 121 123 119 110 109 108 109 113 102 93 93 81 79 77 71
36 46 56 61 62 61 62 65 67 66 64 64 65 66 70 72 73 76 77 86 94 98 102 111 120 115 113 128 127 115 116 111 115 117 111 115 108 99 95 89 88 79 67
42 53 62 68 70 70 70 70 72 75 76 75 74 73 74 75 75 75 75 79 88 98 105 105 111 113 115 120 112 116 108 131 127 126 122 121 115 100 91 95 92 66 72
47 58 66 73 77 77 79 81 81 79 79 79 81 81 83 83 81 79 77 78 85 94 102 107 109 111 114 112 112 121 116 129 131 133 115 109 94 84 91 92 83 63 54
56 67 74 80 84 82 84 90 95 100 101 99 90 85 84 86 86 85 79 78 82 91 95 100 102 106 110 101 109 114 113 123 128 126 110 114 83 70 76 68 54 52 61
69 78 83 87 88 86 87 89 96 103 107 109 112 108 99 93 83 86 86 80 83 89 95 99 96 97 99 98 108 114 119 117 125 118 107 78 68 67 64 53 54 63 67
81 89 96 95 93 89 91 94 99 105 111 115 118 117 111 105 101 86 85 81 84 87 97 101 100 93 88 92 103 103 119 123 117 100 101 68 74 59 50 54 55 54 69
94 102 103 97 96 95 97 102 104 108 112 115 116 120 118 111 103 99 88 86 77 83 98 103 102 92 87 85 89 103 112 114 106 92 77 79 63 49 60 58 62 54 50
101 103 103 105 105 103 102 103 106 105 106 111 111 116 119 118 110 103 93 88 81 77 92 96 96 88 84 80 86 95 103 98 104 87 79 65 47 69 65 62 56 54 47
104 107 107 107 108 106 105 103 101 105 103 104 107 112 115 120 118 109 96 89 78 69 75 87 90 84 79 78 70 79 89 96 97 83 75 57 70 71 62 55 54 53 46
100 105 108 109 110 113 113 110 108 108 100 103 108 105 104 113 111 104 97 90 76 69 66 80 81 82 78 74 73 76 76 85 84 76 63 78 76 71 66 59 52 52 45
102 105 106 103 103 104 107 119 117 114 106 104 107 100 103 102 106 98 94 82 73 73 75 82 83 80 78 79 80 81 76 79 74 75 83 82 77 72 66 60 53 44 41
100 104 104 103 100 95 92 88 99 116 102 105 104 95 94 101 100 94 89 83 76 74 74 80 88 83 82 81 93 100 103 91 79 90 89 82 75 69 64 58 51 48 45
100 101 98 99 92 87 83 86 86 89 100 110 106 95 102 95 94 92 82 73 86 77 74 85 90 89 89 93 104 106 97 89 91 88 84 78 76 68 58 55 53 47 38
95 98 93 90 87 88 90 92 95 96 98 103 111 111 100 87 89 85 67 79 87 93 81 89 92 93 97 106 105 95 90 95 90 83 76 75 66 59 61 55 47 38 32
90 86 75 85 92 92 92 92 94 92 94 94 93 98 94 80 86 78 75 80 88 91 88 93 97 99 101 106 100 93 92 88 80 75 76 68 64 60 57 47 41 39 35
87 99 95 94 96 97 98 95 94 93 95 98 97 90 85 84 87 82 79 83 88 93 95 98 101 103 104 105 100 95 92 87 83 82 74 70 67 59 48 43 44 38 32
92 95 94 95 94 95 97 95 92 89 91 91 99 90 82 85 85 83 81 82 90 94 95 98 96 95 99 96 97 97 92 88 82 76 74 68 56 50 48 47 40 34 31
81 82 84 86 86 87 88 87 86 86 90 90 87 82 78 79 76 74 79 83 83 82 87 94 95 91 89 93 92 87 83 80 75 71 63 57 53 49 46 42 36 34 30
76 75 74 74 76 79 83 83 80 80 81 83 79 74 71 73 74 77 81 83 81 81 82 82 84 91 91 84 75 73 73 70 62 55 50 48 50 48 44 39 35 33 31
67 68 66 68 72 80 81 81 78 78 76 74 67 64 68 70 73 74 74 72 69 70 70 73 79 77 76 80 79 72 65 61 57 51 49 46 44 43 39 36 35 35 31
56 59 55 55 60 63 62 58 56 54 52 51 53 55 59 64 64 62 64 68 73 78 84 85 86 86 84 78 71 66 63 57 51 49 47 45 42 41 39 37 36 34 32
Wind_Direction_850mb
295 301 308 313 307 299 297 291 286 284 281 277 274 276 274 271 269 270 269 269 268 266 265 262 261 257 248 243 246 251 251 245 240 245 247 251 248 242 240 243 244 241 241
305 309 313 314 310 311 315 313 300 287 283 281 277 275 274 272 271 269 269 268 268 266 263 256 259 256 251 244 242 244 246 246 242 242 241 246 246 245 245 248 244 239 237
311 320 325 328 325 318 315 318 320 314 297 288 286 281 278 276 274 270 269 267 261 264 266 262 258 254 250 247 239 239 248 246 245 243 239 242 242 242 240 245 239 232 230
320 330 332 329 326 326 324 321 319 320 318 305 295 292 285 281 276 272 270 270 268 265 263 263 264 260 249 253 247 238 240 240 240 238 239 237 237 239 240 245 236 226 231
312 322 328 328 325 322 320 321 322 322 318 317 311 298 292 287 283 278 272 271 271 269 267 267 266 266 253 258 252 241 236 241 244 235 243 241 237 234 231 240 249 230 230
318 325 327 326 324 321 318 317 318 319 320 318 313 313 302 293 290 287 279 273 273 273 272 268 270 266 268 259 258 251 246 248 237 234 240 241 241 237 234 240 239 215 218
321 330 331 328 324 324 322 320 318 317 316 316 317 316 309 305 297 290 283 275 270 268 270 270 269 269 271 268 271 256 256 248 244 248 243 240 237 241 237 235 222 226 221
324 326 328 327 323 320 317 318 317 316 315 314 311 312 312 308 309 302 291 277 270 267 266 270 272 270 270 271 272 265 253 246 247 243 250 249 245 248 246 233 221 209 220
317 319 322 323 320 315 311 311 313 314 315 315 313 312 307 303 307 308 302 286 273 268 265 266 269 271 271 271 270 261 261 251 240 239 244 243 246 243 238 206 215 209 208
310 312 315 317 314 310 306 304 304 305 306 308 307 309 309 306 303 305 307 294 280 270 269 264 265 269 272 273 265 263 259 257 250 233 232 229 234 209 198 220 221 213 216
305 308 310 310 309 306 303 302 303 304 304 304 303 304 304 306 308 305 304 298 282 273 269 266 268 268 272 274 270 266 266 259 242 227 231 231 200 201 203 205 205 214 214
304 304 305 306 305 303 301 300 300 301 302 302 304 302 302 304 304 306 305 303 286 271 267 268 268 269 266 273 273 264 258 249 237 217 209 197 186 196 195 200 197 188 197
300 300 301 301 300 299 298 297 297 296 296 297 299 300 299 302 302 301 304 302 293 273 269 270 272 270 269 270 269 265 258 246 222 204 189 185 198 193 190 185 181 186 193
298 298 298 298 298 297 296 295 293 291 292 291 293 295 298 298 298 300 303 301 294 269 272 271 270 267 264 264 256 246 241 237 211 188 185 189 192 181 178 184 185 188 192
297 297 296 296 296 296 294 294 292 291 288 288 289 291 292 292 295 298 299 297 292 285 278 274 263 255 249 240 230 227 218 199 191 186 189 183 176 176 176 179 187 190 196
294 293 292 291 288 287 288 290 289 289 289 287 288 285 289 291 294 295 293 287 282 279 278 265 254 246 239 230 220 204 194 191 194 193 186 180 178 178 179 182 190 192 194
292 291 291 289 286 283 280 279 283 290 287 285 283 279 277 289 291 292 288 278 272 274 258 251 247 238 229 221 208 195 184 191 198 189 179 178 177 179 183 183 187 189 189
294 292 289 286 281 278 277 278 277 277 283 285 283 278 283 283 285 285 285 274 271 257 246 245 239 229 221 210 197 189 186 189 184 180 178 175 176 176 176 185 184 185 185
295 292 288 284 276 275 276 276 274 273 272 274 282 282 282 282 282 282 276 261 254 251 243 235 231 225 213 202 192 185 187 183 178 176 172 173 170 176 177 178 177 185 190
296 297 288 281 279 278 277 276 275 273 272 270 271 274 281 282 278 274 275 256 245 241 231 225 221 216 209 196 190 190 183 177 171 171 173 172 172 171 172 175 184 187 186
292 291 291 287 281 281 279 274 274 273 271 271 270 272 271 272 273 272 267 254 242 230 224 218 211 207 199 193 190 182 176 171 171 172 171 168 165 164 177 179 181 181 182
297 295 294 293 291 287 282 280 276 271 270 270 272 270 268 268 266 263 259 241 229 223 217 211 206 201 195 189 181 175 171 169 169 168 165 162 167 173 172 178 177 175 177
298 297 298 296 295 294 290 285 279 276 275 275 273 268 268 264 256 241 232 221 217 209 203 202 198 189 183 177 176 173 170 167 164 163 166 169 164 166 174 175 172 172 173
303 303 303 302 301 299 295 292 290 287 282 277 273 266 253 249 236 228 218 214 207 200 197 198 193 180 172 166 165 164 159 155 160 166 166 156 163 169 170 168 166 168 171
307 305 304 305 304 297 290 287 284 282 282 278 264 245 237 224 214 208 198 194 191 188 182 174 164 161 158 153 150 152 157 161 162 155 159 164 165 164 162 163 167 168 169
309 305 308 304 299 298 296 292 283 274 264 249 231 218 209 201 194 185 180 178 173 164 159 155 151 150 150 151 154 155 153 147 150 160 161 161 161 160 161 165 165 163 161